1508925601.19,49604,10.31,74170.0,3.31,-7.49,-9.83,0,*7B
1508925602.43,49605,10.31,74164.5,3.31,-7.15,-9.49,0,*75
1508925603.68,49606,10.31,74166.5,3.33,-7.73,-9.93,0,*73
1508925604.94,49607,10.31,74168.8,3.31,-7.61,-9.61,0,*7E
1508925606.18,49608,10.31,74168.8,3.31,-7.23,-9.15,0,*74
1508925607.39,49609,10.31,74170.5,3.33,-6.89,-8.67,0,*72
1508925608.6,49610,10.31,74162.3,3.33,-6.69,-8.63,0,*70
1508925609.81,49611,10.31,74160.5,3.33,-6.69,-8.55,0,*74
1508925611.04,49612,10.31,74162.0,3.33,-6.63,-8.67,0,*7C
1508925612.26,49613,10.31,74156.0,3.33,-6.51,-8.75,0,*7F
1508925613.48,49614,10.31,74150.5,3.33,-6.43,-8.85,0,*74
1508925614.72,49615,10.31,74148.8,3.33,-6.31,-8.81,0,*74
1508925615.94,49616,10.31,74146.3,3.35,-6.35,-8.81,0,*75
1508925617.18,49617,10.31,74142.5,3.37,-6.23,-8.89,0,*79
1508925618.39,49618,10.31,74138.8,3.35,-6.23,-8.63,0,*70
1508925619.61,49619,10.31,74144.8,3.37,-6.59,-8.93,0,*71
1508925620.83,49620,10.31,74146.0,3.37,-6.77,-9.05,0,*79
1508925622.08,49621,10.31,74140.5,3.37,-6.97,-9.27,0,*76
1508925623.32,49622,10.31,74142.3,3.35,-7.01,-9.45,0,*7D
1508925624.59,49623,10.31,74142.5,3.37,-7.27,-9.45,0,*7A
1508925625.84,49624,10.31,74144.8,3.37,-7.19,-9.53,0,*77
1508925627.03,49625,10.31,74140.5,3.35,-6.77,-9.01,0,*7A
1508925628.23,49626,10.31,74146.5,3.35,-6.77,-9.27,0,*7D
1508925629.44,49627,10.31,74150.5,3.37,-6.89,-9.31,0,*78
1508925630.66,49628,10.31,74140.0,3.35,-7.05,-9.75,0,*70
1508925631.87,49629,10.31,74138.0,3.35,-7.27,-9.89,0,*72
1508925633.13,49630,10.31,74140.5,3.33,-7.61,-10.31,0,*45
1508925634.35,49631,10.31,74140.0,3.33,-7.23,-9.93,0,*72
1508925635.6,49632,10.31,74142.0,3.33,-7.31,-9.93,0,*72
1508925636.84,49633,10.31,74144.5,3.31,-7.39,-10.05,0,*4E
1508925638.09,49634,10.31,74148.8,3.33,-7.35,-10.15,0,*46
1508925639.34,49635,10.31,74156.3,3.33,-7.35,-10.05,0,*46
1508925640.59,49636,10.31,74158.8,3.31,-7.11,-9.61,0,*7B
1508925641.85,49637,10.31,74152.3,3.31,-6.97,-9.53,0,*74
1508925643.12,49638,10.31,74154.0,3.31,-6.93,-9.53,0,*7F
1508925644.37,49639,10.31,74158.5,3.31,-6.81,-9.53,0,*7D
1508925645.61,49640,10.31,74152.8,3.33,-6.81,-9.49,0,*7A
1508925646.82,49641,10.31,74152.8,3.31,-6.73,-9.31,0,*7B
1508925648.05,49642,10.31,74150.5,3.31,-6.69,-9.37,0,*75
1508925649.32,49643,10.31,74156.0,3.33,-6.63,-9.37,0,*7C
1508925650.57,49644,10.31,74154.8,3.33,-6.89,-9.61,0,*7C
1508925651.8,49645,10.31,74154.3,3.31,-6.69,-9.37,0,*72
1508925653.04,49646,10.31,74158.3,3.31,-6.81,-9.49,0,*7E
1508925654.26,49647,10.31,74160.0,3.33,-6.55,-9.23,0,*78
1508925655.51,49648,10.31,74156.8,3.33,-6.81,-9.49,0,*72
1508925656.73,49649,10.31,74154.0,3.33,-7.23,-9.93,0,*7D
1508925657.98,49650,10.31,74152.0,3.33,-7.01,-9.79,0,*71
1508925659.23,49651,10.31,74152.5,3.33,-6.81,-9.37,0,*73
1508925660.5,49652,10.31,74152.0,3.33,-6.63,-9.37,0,*7C
1508925661.71,49653,10.31,74150.3,3.33,-6.55,-9.23,0,*7D
1508925662.93,49654,10.31,74156.3,3.33,-6.43,-9.19,0,*74
1508925664.18,49655,10.31,74154.8,3.33,-6.81,-9.49,0,*7E
1508925665.43,49656,10.31,74152.5,3.33,-7.01,-9.79,0,*77
1508925666.64,49657,10.31,74146.8,3.33,-6.55,-9.31,0,*7A
1508925667.87,49658,10.31,74146.8,3.33,-6.51,-9.19,0,*7B
1508925669.11,49659,10.25,74152.0,3.33,-6.43,-9.11,0,*71
1508925670.32,49660,10.31,74160.5,3.31,-6.47,-9.23,0,*7C
1508925671.56,49661,10.31,74164.0,3.33,-6.69,-9.57,0,*70
1508925672.81,49662,10.31,74160.8,3.33,-6.43,-9.11,0,*79
1508925674.05,49663,10.31,74150.8,3.33,-6.39,-9.11,0,*75
1508925675.29,49664,10.31,74144.0,3.33,-6.89,-9.57,0,*7B
1508925676.54,49665,10.31,74150.3,3.33,-6.93,-9.75,0,*71
1508925677.81,49666,10.31,74160.8,3.33,-7.01,-9.61,0,*7D
1508925679.02,49667,10.31,74166.5,3.31,-6.55,-9.23,0,*78
1508925680.24,49668,10.31,74160.3,3.33,-6.31,-8.97,0,*79
1508925681.46,49669,10.31,74154.0,3.33,-6.51,-9.19,0,*79
1508925682.7,49670,10.31,74158.3,3.31,-6.47,-9.15,0,*78
1508925683.94,49671,10.31,74160.0,3.33,-6.27,-8.93,0,*72
1508925685.18,49672,10.31,74164.8,3.33,-6.09,-8.81,0,*7E
1508925686.4,49673,10.31,74162.8,3.33,-5.97,-8.63,0,*77
1508925687.61,49674,10.31,74160.8,3.33,-6.01,-8.75,0,*7B
1508925688.86,49675,10.31,74160.0,3.35,-5.85,-8.51,0,*75
1508925690.09,49676,10.31,74162.5,3.35,-5.73,-8.51,0,*7F
1508925691.31,49677,10.31,74162.0,3.37,-5.97,-8.63,0,*77
1508925692.55,49678,10.31,74166.3,3.37,-5.85,-8.59,0,*72
1508925693.76,49679,10.31,74174.8,3.37,-6.05,-8.71,0,*72
1508925695.0,49680,10.31,74168.0,3.37,-6.09,-8.81,0,*77
1508925696.21,49681,10.31,74166.5,3.37,-6.05,-8.71,0,*75
1508925697.45,49682,10.31,74164.8,3.37,-5.93,-8.63,0,*79
1508925698.66,49683,10.31,74164.5,3.37,-6.05,-8.75,0,*73
1508925699.87,49684,10.31,74166.0,3.37,-6.59,-9.31,0,*7C
1508925701.06,49685,10.31,74166.0,3.35,-6.47,-9.27,0,*77
1508925702.25,49686,10.31,74164.0,3.35,-6.39,-9.19,0,*70
1508925703.49,49687,10.31,74160.8,3.37,-6.59,-9.41,0,*78
1508925704.73,49688,10.31,74158.5,3.37,-6.23,-8.93,0,*74
1508925705.92,49689,10.31,74160.5,3.35,-5.97,-8.75,0,*73
1508925707.16,49690,10.31,74158.0,3.37,-5.93,-8.75,0,*7D
1508925708.35,49691,10.31,74156.8,3.35,-6.09,-8.75,0,*7E
1508925709.55,49692,10.31,74158.8,3.35,-6.09,-8.89,0,*7E
1508925710.77,49693,10.31,74154.5,3.35,-6.23,-8.93,0,*7C
1508925711.95,49694,10.31,74146.3,3.35,-6.05,-8.71,0,*73
1508925713.2,49695,10.31,74144.3,3.37,-5.85,-8.45,0,*7C
1508925714.44,49696,10.31,74144.0,3.37,-5.93,-8.71,0,*7F
1508925715.71,49697,10.31,74150.3,3.37,-5.85,-8.51,0,*7B
1508925716.95,49698,10.31,74152.3,3.37,-5.81,-8.59,0,*78
1508925718.21,49699,10.31,74150.8,3.37,-6.23,-8.81,0,*77
1508925719.43,49700,10.31,74148.3,3.35,-6.51,-9.15,0,*7D
1508925720.65,49701,10.31,74152.0,3.35,-6.51,-9.15,0,*7C
1508925721.89,49702,10.31,74158.0,3.37,-6.23,-8.75,0,*7F
1508925723.16,49703,10.31,74156.3,3.37,-5.85,-8.51,0,*77
1508925724.4,49704,10.31,74158.8,3.35,-5.85,-8.51,0,*72
1508925725.6,49705,10.31,74152.8,3.35,-5.55,-8.33,0,*7A
1508925726.84,49706,10.31,74154.5,3.37,-5.61,-8.37,0,*78
1508925728.09,49707,10.31,74150.3,3.37,-5.69,-8.37,0,*71
1508925729.32,49708,10.31,74144.0,3.37,-5.81,-8.59,0,*70
1508925730.51,49709,10.31,74144.0,3.35,-5.97,-8.71,0,*7E
1508925731.76,49710,10.31,74146.8,3.37,-5.85,-8.71,0,*77
1508925733.0,49711,10.31,74148.5,3.37,-6.19,-8.93,0,*7C
1508925734.24,49712,10.31,74160.3,3.37,-5.93,-8.63,0,*71
1508925735.46,49713,10.31,74154.5,3.35,-6.09,-8.81,0,*7E
1508925736.68,49714,10.31,74150.8,3.35,-6.23,-9.01,0,*78
1508925737.86,49715,10.31,74144.0,3.35,-5.97,-8.75,0,*77
1508925739.08,49716,10.31,74144.3,3.35,-6.27,-9.05,0,*7A
1508925740.27,49717,10.31,74140.3,3.35,-6.39,-9.19,0,*79
1508925741.48,49718,10.31,74148.8,3.35,-6.39,-9.15,0,*7A
1508925742.67,49719,10.31,74150.5,3.35,-6.09,-8.75,0,*7F
1508925743.9,49720,10.31,74156.5,3.37,-5.73,-8.63,0,*7E
1508925745.14,49721,10.31,74152.5,3.33,-5.73,-8.41,0,*7B
1508925746.36,49722,10.31,74154.8,3.33,-5.97,-8.75,0,*75
1508925747.54,49723,10.31,74156.5,3.35,-6.05,-8.75,0,*7A
1508925748.76,49724,10.31,74156.0,3.35,-6.19,-8.93,0,*78
1508925750.0,49725,10.31,74156.5,3.33,-5.73,-8.41,0,*7F
1508925751.24,49726,10.31,74156.3,3.33,-5.65,-8.29,0,*75
1508925752.46,49727,10.31,74158.0,3.33,-5.39,-8.17,0,*70
1508925753.68,49728,10.31,74152.3,3.37,-5.55,-8.21,0,*74
1508925754.93,49729,10.31,74154.5,3.35,-5.93,-8.51,0,*7A
1508925756.17,49730,10.31,74152.0,3.35,-5.81,-8.51,0,*71
1508925757.39,49731,10.31,74152.0,3.35,-5.69,-8.33,0,*72
1508925758.61,49732,10.31,74154.3,3.35,-5.47,-8.11,0,*7D
1508925759.83,49733,10.31,74154.0,3.37,-5.55,-8.25,0,*7A
1508925761.04,49734,10.31,74150.0,3.35,-5.35,-8.11,0,*7E
1508925762.25,49735,10.31,74152.0,3.37,-5.43,-8.25,0,*7B
1508925763.5,49736,10.31,74152.5,3.37,-5.61,-8.37,0,*7B
1508925764.71,49737,10.31,74158.3,3.37,-5.35,-8.21,0,*7C
1508925765.98,49738,10.31,74158.8,3.37,-5.31,-8.11,0,*74
1508925767.21,49739,10.31,74158.5,3.37,-5.47,-8.37,0,*70
1508925768.42,49740,10.31,74152.8,3.35,-5.69,-8.63,0,*71
1508925769.63,49741,10.31,74158.3,3.37,-5.47,-8.59,0,*77
1508925770.85,49742,10.31,74156.5,3.35,-5.31,-8.25,0,*7C
1508925772.06,49743,10.31,74154.8,3.37,-5.43,-8.45,0,*7C
1508925773.31,49744,10.31,74148.3,3.37,-5.55,-8.51,0,*79
1508925774.56,49745,10.31,74152.8,3.37,-5.55,-8.51,0,*78
1508925775.77,49746,10.31,74156.0,3.37,-5.47,-8.59,0,*70
1508925776.98,49747,10.31,74162.5,3.37,-5.43,-8.33,0,*79
1508925778.19,49748,10.31,74160.3,3.37,-5.35,-8.25,0,*70
1508925779.46,49749,10.31,74158.8,3.37,-5.31,-8.11,0,*72
1508925780.7,49750,10.31,74156.0,3.37,-5.81,-8.71,0,*77
1508925781.92,49751,10.31,74154.5,3.37,-5.55,-8.37,0,*7D
1508925783.17,49752,10.31,74154.5,3.37,-5.35,-8.07,0,*7B
1508925784.43,49753,10.31,74158.5,3.37,-5.27,-7.95,0,*7D
1508925785.65,49754,10.31,74160.3,3.39,-5.11,-7.87,0,*72
1508925786.89,49755,10.31,74156.0,3.39,-5.15,-7.77,0,*78
1508925788.14,49756,10.31,74152.3,3.41,-5.23,-7.87,0,*7E
1508925789.38,49757,10.31,74152.8,3.39,-5.15,-7.65,0,*79
1508925790.62,49758,10.31,74152.0,3.41,-4.99,-7.39,0,*75
1508925791.9,49759,10.31,74156.0,3.41,-5.23,-7.61,0,*79
1508925793.17,49760,10.31,74156.3,3.41,-5.03,-7.39,0,*7C
1508925794.42,49761,10.31,74152.5,3.41,-4.89,-7.15,0,*70
1508925795.61,49762,10.31,74158.8,3.39,-4.65,-7.11,0,*7A
1508925796.85,49763,10.31,74154.5,3.41,-4.61,-6.97,0,*7F
1508925798.09,49764,10.31,74154.0,3.41,-4.53,-7.01,0,*77
1508925799.33,49765,10.31,74152.5,3.41,-4.53,-7.01,0,*76
1508925800.57,49766,10.31,74150.3,3.43,-4.81,-7.57,0,*7B
1508925801.8,49767,10.31,74148.0,3.43,-5.27,-8.03,0,*79
1508925803.04,49768,10.31,74148.8,3.43,-5.11,-7.99,0,*7F
1508925804.27,49769,10.31,74154.3,3.43,-4.81,-7.69,0,*79
1508925805.54,49770,10.31,74152.3,3.41,-4.73,-7.65,0,*72
1508925806.78,49771,10.31,74156.3,3.41,-4.99,-8.07,0,*7C
1508925808.02,49772,10.31,74156.0,3.41,-5.15,-8.17,0,*7B
1508925809.29,49773,10.31,74156.3,3.41,-4.85,-7.91,0,*73
1508925810.53,49774,10.31,74158.3,3.41,-5.27,-8.41,0,*7F
1508925811.77,49775,10.31,74154.5,3.41,-5.15,-8.33,0,*7A
1508925813.01,49776,10.31,74148.3,3.41,-5.27,-8.45,0,*79
1508925814.25,49777,10.31,74148.5,3.41,-5.27,-8.33,0,*79
1508925815.49,49778,10.31,74150.5,3.41,-5.27,-8.55,0,*76
1508925816.67,49779,10.31,74152.0,3.43,-5.39,-8.55,0,*7A
1508925817.88,49780,10.31,74158.3,3.43,-5.73,-8.97,0,*7C
1508925819.11,49781,10.31,74162.8,3.41,-5.55,-8.85,0,*78
1508925820.29,49782,10.31,74168.3,3.39,-6.01,-9.23,0,*7B
1508925821.51,49783,10.31,74160.8,3.41,-5.51,-8.75,0,*71
1508925822.69,49784,10.31,74162.0,3.39,-5.43,-8.67,0,*79
1508925823.93,49785,10.31,74162.3,3.41,-5.77,-8.97,0,*7F
1508925825.14,49786,10.31,74160.0,3.41,-5.39,-8.55,0,*78
1508925826.32,49787,10.31,74156.8,3.39,-5.39,-8.67,0,*77
1508925827.56,49788,10.31,74154.0,3.41,-5.31,-8.67,0,*7F
1508925828.76,49789,10.31,74152.3,3.39,-5.51,-8.89,0,*77
1508925829.97,49790,10.31,74148.0,3.39,-5.69,-8.97,0,*7B
1508925831.19,49791,10.31,74150.5,3.39,-5.65,-8.97,0,*76
1508925832.4,49792,10.31,74148.8,3.39,-5.77,-9.23,0,*78
1508925833.62,49793,10.31,74154.0,3.39,-5.93,-9.27,0,*77
1508925834.89,49794,10.31,74152.5,3.41,-5.77,-9.11,0,*70
1508925836.13,49795,10.31,74148.3,3.39,-5.77,-9.11,0,*7E
1508925837.37,49796,10.31,74142.3,3.37,-5.73,-9.05,0,*72
1508925838.63,49797,10.31,74146.3,3.37,-5.81,-9.15,0,*7F
1508925839.87,49798,10.31,74146.8,3.37,-5.73,-9.05,0,*7C
1508925841.13,49799,10.31,74160.8,3.37,-5.61,-8.81,0,*73
1508925842.33,49800,10.31,74158.5,3.37,-5.43,-8.71,0,*73
1508925843.6,49801,10.31,74152.8,3.37,-5.93,-9.15,0,*7C
1508925844.85,49802,10.31,74154.8,3.37,-5.85,-9.05,0,*79
1508925846.09,49803,10.31,74154.5,3.37,-5.93,-9.19,0,*72
1508925847.33,49804,10.31,74148.3,3.37,-5.73,-9.01,0,*72
1508925848.55,49805,10.31,74148.0,3.37,-5.55,-8.75,0,*75
1508925849.79,49806,10.31,74156.8,3.37,-5.73,-8.93,0,*7A
1508925851.03,49807,10.25,74158.3,3.37,-5.61,-8.89,0,*73
1508925852.25,49808,10.31,74164.5,3.37,-5.55,-8.71,0,*7C
1508925853.49,49809,10.31,74164.5,3.37,-5.93,-9.27,0,*75
1508925854.76,49810,10.31,74160.5,3.37,-5.93,-9.15,0,*7C
1508925856.01,49811,10.31,74158.3,3.37,-5.93,-9.19,0,*71
1508925857.23,49812,10.31,74150.8,3.35,-5.93,-9.27,0,*7D
1508925858.45,49813,10.31,74156.5,3.39,-6.13,-9.37,0,*7A
1508925859.69,49814,10.31,74162.3,3.37,-6.05,-9.45,0,*71
1508925860.93,49815,10.31,74158.5,3.37,-6.09,-9.45,0,*7C
1508925862.18,49816,10.31,74158.0,3.37,-5.81,-9.05,0,*78
1508925863.39,49817,10.31,74156.8,3.35,-5.47,-8.81,0,*7C
1508925864.64,49818,10.31,74152.8,3.37,-5.69,-9.01,0,*74
1508925865.85,49819,10.31,74154.0,3.35,-5.73,-9.05,0,*78
1508925867.1,49820,10.31,74158.5,3.37,-5.69,-8.89,0,*7E
1508925868.33,49821,10.31,74158.3,3.37,-5.47,-8.81,0,*7B
1508925869.57,49822,10.31,74158.5,3.37,-5.69,-8.75,0,*7F
1508925870.81,49823,10.31,74160.5,3.37,-5.73,-8.89,0,*76
1508925872.07,49824,10.31,74156.8,3.37,-5.81,-8.81,0,*74
1508925873.28,49825,10.31,74158.0,3.37,-5.47,-8.59,0,*7A
1508925874.53,49826,10.31,74158.5,3.37,-5.27,-8.37,0,*77
1508925875.74,49827,10.31,74158.3,3.39,-5.11,-8.21,0,*7A
1508925876.95,49828,10.31,74158.3,3.39,-5.23,-8.55,0,*77
1508925878.17,49829,10.31,74160.5,3.41,-5.39,-8.71,0,*74
1508925879.38,49830,10.31,74168.5,3.41,-5.43,-8.89,0,*76
1508925880.63,49831,10.31,74170.8,3.41,-5.77,-9.27,0,*75
1508925881.9,49832,10.31,74164.0,3.41,-5.89,-9.37,0,*76
1508925883.11,49833,10.31,74156.3,3.39,-5.77,-9.23,0,*7C
1508925884.35,49834,10.31,74152.8,3.39,-5.69,-9.15,0,*71
1508925885.57,49835,10.31,74144.0,3.39,-5.77,-9.23,0,*7A
1508925886.81,49836,10.31,74130.3,3.39,-5.89,-9.11,0,*79
1508925888.0,49837,10.31,74138.0,3.39,-6.31,-9.71,0,*7E
1508925889.24,49838,10.31,74140.5,3.39,-6.19,-9.41,0,*78
1508925890.49,49839,10.31,74140.8,3.39,-6.19,-9.41,0,*79
1508925891.73,49840,10.31,74138.8,3.37,-6.63,-10.09,0,*40
1508925892.92,49841,10.31,74142.5,3.35,-6.73,-9.97,0,*7D
1508925894.17,49842,10.31,74154.8,3.35,-6.23,-9.45,0,*74
1508925895.4,49843,10.31,74148.3,3.35,-6.23,-9.57,0,*76
1508925896.62,49844,10.31,74142.0,3.35,-5.97,-9.15,0,*7B
1508925897.86,49845,10.31,74140.5,3.35,-5.31,-8.51,0,*77
1508925899.09,49846,10.31,74148.8,3.33,-5.51,-8.85,0,*7D
1508925900.3,49847,10.31,74152.3,3.35,-5.27,-8.71,0,*70
1508925901.49,49848,10.31,74148.8,3.35,-5.43,-8.89,0,*7A
1508925902.68,49849,10.31,74142.8,3.35,-5.43,-8.75,0,*78
1508925903.88,49850,10.31,74148.3,3.35,-5.47,-8.89,0,*77
1508925905.09,49851,10.31,74146.3,3.35,-5.61,-8.89,0,*72
1508925906.28,49852,10.31,74148.8,3.35,-5.35,-8.59,0,*7D
1508925907.49,49853,10.31,74148.8,3.37,-5.43,-8.71,0,*75
1508925908.7,49854,10.31,74150.5,3.37,-5.43,-8.71,0,*72
1508925909.9,49855,10.31,74134.8,3.37,-5.43,-8.75,0,*77
1508925911.12,49856,10.31,74140.5,3.35,-5.69,-9.19,0,*75
1508925912.34,49857,10.31,74148.0,3.35,-5.81,-9.31,0,*78
1508925913.56,49858,10.31,74158.0,3.35,-5.55,-9.15,0,*78
1508925914.77,49859,10.31,74144.8,3.35,-5.47,-9.15,0,*7A
1508925916.03,49860,10.31,74116.8,3.35,-5.85,-9.53,0,*7C
1508925917.22,49861,10.31,74112.5,3.35,-6.09,-9.75,0,*7E
1508925918.45,49862,10.31,74132.3,3.35,-6.73,-10.41,0,*4F
1508925919.69,49863,10.31,74162.5,3.35,-6.77,-10.41,0,*4A
1508925920.93,49864,10.31,74164.3,3.33,-6.23,-9.79,0,*79
1508925922.18,49865,10.31,74152.3,3.33,-5.77,-9.05,0,*71
1508925923.39,49866,10.31,74148.8,3.31,-5.55,-8.71,0,*72
1508925924.6,49867,10.31,74142.5,3.31,-5.51,-8.59,0,*7D
1508925925.82,49868,10.31,74136.0,3.31,-5.55,-8.41,0,*7F
1508925927.04,49869,10.31,74138.8,3.31,-5.81,-8.67,0,*73
1508925928.28,49870,10.31,74136.8,3.31,-5.89,-8.59,0,*7E
1508925929.52,49871,10.31,74138.8,3.31,-5.89,-8.45,0,*72
1508925930.76,49872,10.31,74150.8,3.31,-5.93,-8.45,0,*7A
1508925932.03,49873,10.31,74166.5,3.31,-5.65,-8.07,0,*74
1508925933.26,49874,10.31,74160.5,3.31,-5.77,-8.41,0,*72
1508925934.5,49875,10.31,74150.8,3.31,-5.35,-7.99,0,*7F
1508925935.75,49876,10.31,74138.8,3.31,-4.85,-7.77,0,*76
1508925936.99,49877,10.31,74136.0,3.27,-5.39,-8.51,0,*7D
1508925938.2,49878,10.31,74132.3,3.27,-5.43,-8.89,0,*7A
1508925939.43,49879,10.31,74148.5,3.27,-5.19,-8.93,0,*7F
1508925940.66,49880,10.31,74162.8,3.27,-4.81,-8.75,0,*71
1508925941.89,49881,10.31,74154.8,3.27,-5.19,-9.31,0,*71
1508925943.13,49882,10.31,74148.0,3.27,-5.39,-9.45,0,*73
1508925944.34,49883,10.31,74148.0,3.27,-5.47,-9.97,0,*74
1508925945.55,49884,10.31,74152.8,3.25,-5.61,-9.97,0,*75
1508925946.76,49885,10.31,74150.3,3.25,-5.31,-9.67,0,*7E
1508925947.97,49886,10.31,74150.0,3.25,-5.55,-10.01,0,*47
1508925949.16,49887,10.31,74150.5,3.21,-5.35,-9.71,0,*7B
1508925950.39,49888,10.31,74150.8,3.25,-5.27,-9.57,0,*77
1508925951.57,49889,10.31,74154.5,3.25,-5.43,-9.89,0,*77
1508925952.81,49890,10.31,74152.8,3.27,-5.73,-10.27,0,*42
1508925954.04,49891,10.31,74156.3,3.25,-5.97,-10.41,0,*4B
1508925955.29,49892,10.31,74162.0,3.25,-5.93,-10.41,0,*4C
1508925956.53,49893,10.31,74162.5,3.25,-6.23,-10.67,0,*41
1508925957.75,49894,10.31,74160.0,3.25,-6.23,-10.53,0,*41
1508925958.94,49895,10.31,74158.8,3.25,-6.05,-10.49,0,*4F
1508925960.16,49896,10.31,74156.5,3.21,-6.43,-10.71,0,*41
1508925961.36,49897,10.31,74154.0,3.25,-6.31,-10.35,0,*41
1508925962.58,49898,10.31,74152.8,3.21,-5.89,-9.75,0,*76
1508925963.81,49899,10.31,74154.0,3.21,-5.77,-9.57,0,*76
1508925965.01,49900,10.31,74152.5,3.25,-5.55,-9.05,0,*74
1508925966.22,49901,10.31,74148.8,3.21,-5.61,-9.05,0,*76
1508925967.43,49902,10.31,74144.8,3.25,-5.61,-9.01,0,*75
1508925968.61,49903,10.31,74152.0,3.25,-5.43,-8.71,0,*72
1508925969.82,49904,10.31,74158.3,3.25,-5.27,-8.45,0,*70
1508925970.99,49905,10.31,74166.5,3.25,-5.39,-8.63,0,*7A
1508925972.21,49906,10.31,74166.5,3.21,-6.01,-9.45,0,*70
1508925973.4,49907,10.31,74160.0,3.25,-5.97,-9.27,0,*7D
1508925974.61,49908,10.31,74162.5,3.25,-5.85,-9.27,0,*71
1508925975.8,49909,10.31,74162.0,3.21,-5.47,-8.67,0,*7F
1508925977.0,49910,10.31,74160.0,3.25,-5.61,-8.93,0,*7C
1508925978.2,49911,10.31,74164.0,3.25,-5.55,-8.85,0,*7D
1508925979.4,49912,10.31,74168.3,3.25,-5.27,-8.63,0,*73
1508925980.61,49913,10.31,74154.8,3.25,-5.27,-8.71,0,*71
1508925981.81,49914,10.31,74148.0,3.25,-5.19,-8.71,0,*7B
1508925983.02,49915,10.31,74144.8,3.25,-5.31,-8.71,0,*70
1508925984.21,49916,10.31,74150.3,3.25,-5.55,-8.93,0,*7D
1508925985.45,49917,10.31,74158.3,3.25,-5.69,-9.15,0,*7C
1508925986.66,49918,10.31,74162.8,3.25,-5.31,-8.75,0,*79
1508925987.87,49919,10.31,74162.5,3.27,-5.55,-9.27,0,*7E
1508925989.06,49920,10.31,74164.5,3.29,-5.39,-8.97,0,*7A
1508925990.3,49921,10.31,74162.8,3.27,-5.47,-9.15,0,*77
1508925991.54,49922,10.31,74158.0,3.27,-5.27,-9.01,0,*77
1508925992.8,49923,10.31,74150.3,3.27,-5.19,-9.15,0,*7E
1508925994.06,49924,10.31,74146.3,3.27,-5.31,-9.41,0,*72
1508925995.31,49925,10.31,74140.8,3.27,-5.69,-10.01,0,*42
1508925996.53,49926,10.31,74144.0,3.27,-6.05,-10.35,0,*4F
1508925997.73,49927,10.31,74152.8,3.29,-6.05,-10.49,0,*4B
1508925998.97,49928,10.31,74158.3,3.27,-6.23,-10.53,0,*45
1508926000.22,49929,10.31,74156.0,3.27,-6.35,-10.71,0,*43
1508926001.41,49930,10.31,74160.0,3.25,-6.59,-10.93,0,*4F
1508926002.63,49931,10.31,74158.0,3.25,-6.39,-10.67,0,*43
1508926003.85,49932,10.31,74154.5,3.25,-6.59,-10.79,0,*49
1508926005.08,49933,10.31,74154.3,3.25,-6.35,-10.63,0,*49
1508926006.3,49934,10.31,74158.3,3.25,-6.35,-10.63,0,*4E
1508926007.52,49935,10.31,74158.8,3.25,-6.27,-10.35,0,*4F
1508926008.71,49936,10.31,74154.5,3.25,-5.97,-10.09,0,*4B
1508926009.9,49937,10.31,74148.8,3.25,-5.97,-10.09,0,*4A
1508926011.12,49938,10.31,74150.0,3.25,-5.93,-9.97,0,*7E
1508926012.37,49939,10.31,74148.5,3.27,-6.23,-10.35,0,*45
1508926013.59,49940,10.31,74150.3,3.27,-6.05,-10.01,0,*48
1508926014.84,49941,10.31,74158.0,3.27,-6.19,-10.15,0,*41
1508926016.07,49942,10.31,74162.8,3.27,-6.35,-10.35,0,*4E
1508926017.29,49943,10.31,74162.0,3.27,-6.31,-10.15,0,*49
1508926018.51,49944,10.31,74154.0,3.27,-6.59,-10.53,0,*42
1508926019.79,49945,10.31,74154.5,3.27,-6.97,-10.79,0,*49
1508926021.0,49946,10.31,74158.8,3.27,-6.47,-10.23,0,*48
1508926022.23,49947,10.31,74162.3,3.27,-6.47,-10.27,0,*4D
1508926023.45,49948,10.31,74158.3,3.27,-6.35,-10.15,0,*46
1508926024.67,49949,10.31,74160.0,3.27,-6.09,-9.67,0,*75
1508926025.89,49950,10.31,74152.5,3.27,-6.35,-10.09,0,*42
1508926027.11,49951,10.31,74154.8,3.27,-6.35,-9.97,0,*7C
1508926028.32,49952,10.31,74152.5,3.27,-6.35,-9.97,0,*7F
1508926029.54,49953,10.31,74164.0,3.27,-6.35,-10.09,0,*41
1508926030.76,49954,10.31,74160.0,3.27,-5.97,-9.67,0,*7D
1508926031.98,49955,10.31,74158.8,3.27,-6.31,-10.09,0,*43
1508926033.2,49956,10.31,74152.0,3.27,-6.39,-10.27,0,*44
1508926034.42,49957,10.31,74146.5,3.27,-6.31,-10.09,0,*41
1508926035.65,49958,10.31,74146.8,3.27,-6.35,-10.27,0,*46
1508926036.87,49959,10.31,74156.3,3.27,-6.77,-10.53,0,*42
1508926038.07,49960,10.31,74164.5,3.21,-6.47,-10.27,0,*4E
1508926039.3,49961,10.31,74162.8,3.27,-6.23,-9.89,0,*77
1508926040.52,49962,10.31,74160.5,3.27,-6.31,-10.09,0,*47
1508926041.76,49963,10.31,74156.3,3.27,-6.09,-9.83,0,*77
1508926042.97,49964,10.31,74158.3,3.27,-5.97,-9.67,0,*7E
1508926044.18,49965,10.31,74160.8,3.29,-6.59,-10.35,0,*4F
1508926045.41,49966,10.31,74158.8,3.27,-6.23,-9.97,0,*7F
1508926046.62,49967,10.31,74154.0,3.25,-6.05,-9.57,0,*74
1508926047.88,49968,10.31,74158.3,3.27,-6.19,-9.57,0,*74
1508926049.09,49969,10.31,74154.8,3.27,-6.31,-9.71,0,*7B
1508926050.34,49970,10.31,74148.8,3.29,-6.19,-9.41,0,*74
1508926051.55,49971,10.31,74150.0,3.29,-6.01,-9.15,0,*7D
1508926052.74,49972,10.31,74152.8,3.29,-6.01,-8.97,0,*75
1508926053.94,49973,10.31,74156.3,3.29,-6.13,-8.97,0,*77
1508926055.16,49974,10.31,74144.0,3.29,-6.35,-9.11,0,*7B
1508926056.37,49975,10.31,74136.5,3.29,-6.47,-9.15,0,*7B
1508926057.58,49976,10.31,74142.8,3.27,-6.59,-9.19,0,*75
1508926058.79,49977,10.31,74142.5,3.27,-5.97,-8.71,0,*7A
1508926059.97,49978,10.31,74142.0,3.29,-5.39,-8.33,0,*79
1508926061.21,49979,10.31,74148.5,3.27,-5.15,-8.33,0,*78
1508926062.44,49980,10.31,74152.3,3.27,-5.27,-8.63,0,*7A
1508926063.67,49981,10.31,74154.3,3.29,-5.03,-8.81,0,*7F
1508926064.88,49982,10.31,74154.3,3.29,-5.43,-9.15,0,*74
1508926066.12,49983,10.31,74152.3,3.27,-5.81,-9.71,0,*77
1508926067.36,49984,10.31,74152.8,3.27,-6.19,-9.97,0,*7A
1508926068.61,49985,10.31,74156.3,3.27,-6.23,-10.01,0,*45
1508926069.84,49986,10.31,74156.8,3.27,-6.23,-9.89,0,*7E
1508926071.11,49987,10.31,74156.3,3.27,-6.19,-9.83,0,*7C
1508926072.35,49988,10.31,74154.0,3.27,-6.09,-9.57,0,*7B
1508926073.58,49989,10.31,74148.3,3.27,-5.97,-9.57,0,*7E
1508926074.8,49990,10.31,74144.3,3.27,-6.85,-10.49,0,*41
1508926076.02,49991,10.31,74148.8,3.27,-6.77,-10.49,0,*4D
1508926077.22,49992,10.31,74148.8,3.25,-6.59,-10.27,0,*48
1508926078.43,49993,10.31,74144.0,3.25,-6.31,-9.83,0,*71
1508926079.63,49994,10.31,74150.3,3.25,-6.35,-10.09,0,*48
1508926080.87,49995,10.31,74148.5,3.27,-6.35,-9.83,0,*71
1508926082.1,49996,10.31,74160.0,3.27,-6.05,-9.57,0,*78
1508926083.33,49997,10.31,74154.8,3.27,-6.77,-10.35,0,*40
1508926084.55,49998,10.31,74156.0,3.27,-6.77,-10.27,0,*4C
1508926085.77,49999,10.31,74158.0,3.27,-6.47,-10.09,0,*42
1508926086.97,50000,10.31,74156.3,3.21,-6.51,-10.01,0,*4A
1508926088.16,50001,10.31,74162.5,3.25,-6.35,-9.97,0,*7A
1508926089.38,50002,10.31,74154.5,3.25,-6.23,-9.67,0,*71
1508926090.56,50003,10.31,74158.8,3.25,-6.35,-9.89,0,*77
1508926091.78,50004,10.31,74156.0,3.25,-6.23,-9.71,0,*70
1508926092.96,50005,10.31,74152.5,3.25,-6.31,-9.71,0,*72
1508926094.18,50006,10.31,74158.3,3.25,-6.31,-9.83,0,*7C
1508926095.36,50007,10.31,74156.0,3.25,-6.31,-9.89,0,*77
1508926096.6,50008,10.31,74154.3,3.27,-6.19,-9.67,0,*70
1508926097.82,50009,10.31,74156.8,3.27,-6.31,-9.89,0,*7B
1508926099.06,50010,10.31,74166.0,3.27,-6.35,-9.83,0,*7D
1508926100.29,50011,10.31,74170.5,3.27,-6.23,-9.89,0,*71
1508926101.52,50012,10.31,74164.8,3.27,-6.51,-10.15,0,*4A
1508926102.72,50013,10.31,74160.5,3.29,-6.35,-9.97,0,*75
1508926103.93,50014,10.31,74156.3,3.27,-6.09,-9.67,0,*7C
1508926105.17,50015,10.31,74158.0,3.27,-6.31,-9.83,0,*7C
1508926106.39,50016,10.31,74158.0,3.29,-6.27,-9.79,0,*73
1508926107.63,50017,10.31,74158.8,3.27,-6.35,-9.83,0,*7A
1508926108.87,50018,10.31,74158.5,3.27,-6.23,-9.71,0,*7F
1508926110.1,50019,10.31,74156.8,3.27,-6.23,-9.67,0,*79
1508926111.32,50020,10.31,74158.5,3.27,-6.35,-9.89,0,*74
1508926112.56,50021,10.31,74162.8,3.29,-6.19,-9.61,0,*73
1508926113.79,50022,10.31,74164.3,3.27,-6.05,-9.57,0,*76
1508926115.06,50023,10.31,74166.0,3.27,-6.19,-9.45,0,*79